Weather Roundup
Issued by NWS

Home | Current Version | Previous Version | Graphics & Text | Print | Product List | Glossary Off
Versions: 1 2 3 4 5 6 7 8 9 10 11 12 13 14 15 16 17 18 19 20 21 22 23 24 25 26 27 28 29 30 31 32 33 34 35 36 37 38 39 40 41 42 43 44 45 46 47 48 49 50

000
NZUS93 KARX 231459
HRRWXR

CURRENT HOURLY OBSERVATIONS ACROSS
MUCH OF THE UPPER MISSISSIPPI VALLEY
NATIONAL WEATHER SERVICE LA CROSSE WI
1000 AM CDT TUE AUG 23 2016


...SOUTHEAST MINNESOTA...


CITY           SKY/WX    TMP DP  RH WIND       PRES   REMARKS
ROCHESTER      MOSUNNY   72  63  73 S14G23    30.04S
ROCHESTER/MAYO FAIR      71  61  70 S8G17     30.03S
WINONA         MOSUNNY   73  61  64 S3        30.05R
AUSTIN         MOSUNNY   70  63  78 S10       30.03S
ALBERT LEA     MOSUNNY   72  64  78 S9        30.00S
DODGE CENTER   MOSUNNY   73  63  68 S16       30.02S
PRESTON        MOSUNNY   67  61  78 S9        30.07S
OWATONNA       MOSUNNY   72  63  73 S16       29.98S
FARIBAULT      MOSUNNY   72  63  73 SE13      29.97F
$$

...ELSEWHERE IN MINNESOTA...


CITY           SKY/WX    TMP DP  RH WIND       PRES   REMARKS
MINNEAPOLIS    MOSUNNY   75  61  61 S13       29.94F
INTNL FALLS    CLOUDY    71  63  75 MISG      29.82R
DULUTH         MOSUNNY   74  63  68 S13       29.91S
RED WING       MOSUNNY   75  61  60 SE8       29.98S
REDWOOD FALLS  SUNNY     74  63  68 S16       29.88S
MANKATO        MOSUNNY   72  63  73 S10G18    29.95R
WORTHINGTON    CLOUDY    71  65  81 S12G18    29.92S
FAIRMONT       NOT AVBL
$$

...SOUTHWEST WISCONSIN...


CITY           SKY/WX    TMP DP  RH WIND       PRES   REMARKS
LA CROSSE      SUNNY     74  68  81 S16       30.06F
PRAIRIE DU CHI MOSUNNY   72  60  65 CALM      30.10F
BOSCOBEL       MOSUNNY   76  62  62 S8        30.12S
LONE ROCK      NOT AVBL
PLATTEVILLE    MOSUNNY   70  65  83 S12       30.16R
FORT MC COY    SUNNY     73  62  68 S9        30.10S
MAUSTON-NEW LI SUNNY     73  62  70 S8        30.11S
VIROQUA        FAIR      73  62  68 S9        30.11F
WIS DELLS      NOT AVBL
$$

...ELSEWHERE IN WISCONSIN...


CITY           SKY/WX    TMP DP  RH WIND       PRES   REMARKS
MILWAUKEE      MOSUNNY   78  60  53 S14       30.19S
MADISON        MOSUNNY   72  60  66 S12       30.15S
GREEN BAY      SUNNY     73  63  70 S12G20    30.13S
EAU CLAIRE     NOT AVBL
BLACK RVR FLS  FAIR      73  61  65 S5        30.07S
MEDFORD        SUNNY     69  63  82 S10G16    30.08S
WAUSAU         SUNNY     71  61  70 S10       30.09S
WIS RAPIDS     SUNNY     73  62  68 SW13      30.13R
MARSHFIELD     SUNNY     73  61  65 SW13G22   30.09S
RICE LAKE      SUNNY     72  61  68 S14       30.01S
$$

...NORTHEAST IOWA...


CITY           SKY/WX    TMP DP  RH WIND       PRES   REMARKS
WATERLOO       SUNNY     71  63  75 S13       30.07S
DUBUQUE        SUNNY     71  63  75 S14       30.15S
DECORAH        MOSUNNY   72  64  78 S10G20    30.08S
MASON CITY     MOSUNNY   73  65  75 S15G22    30.03F
CHARLES CITY   SUNNY     72  66  83 S12       30.06S
OELWEIN        MOSUNNY   70  64  83 S13       30.10S
$$

...ELSEWHERE IN IOWA...


CITY           SKY/WX    TMP DP  RH WIND       PRES   REMARKS
DES MOINES     PTSUNNY   74  66  76 S15       30.03F
IOWA CITY      MOSUNNY   73  64  73 S9        30.14S
FORT DODGE     MOSUNNY   72  64  78 S9        30.01S
MARSHALLTOWN   NOT AVBL
CEDAR RAPIDS   MOSUNNY   71  66  84 SE12      30.11S
$$

...NORTHERN ILLINOIS...


CITY           SKY/WX    TMP DP  RH WIND       PRES   REMARKS
CHICAGO-OHARE  MOSUNNY   75  60  59 S13G18    30.22R
CHICAGO-MIDWAY MOSUNNY   76  60  57 SW13      30.22S
MOLINE         SUNNY     74  63  68 S7        30.16S
ROCKFORD       MOSUNNY   73  64  73 S9        30.20S
PEORIA         SUNNY     75  64  68 S13       30.21R
$$

NOTE: "FAIR" INDICATES FEW OR NO CLOUDS BELOW 12,000 FEET WITH NO
SIGNIFICANT WEATHER AND/OR OBSTRUCTIONS TO VISIBILITY. WIND
SPEEDS ARE IN MILES-PER-HOUR.




USA.gov is the U.S. government's official web portal to all federal, state and local government web resources and services.